Hauptseite
METAR-TAF:

METAR-TAF

Flughäfen :

Flugplatz Laval-Entrammes

Laval, Frankreich

Breite: 48-01-56N, Länge: 000-44-34W, Höhe: 101 m

Beobachtung

Neuester Wetterbericht von vor 25 Minuten, um 16:00 UTC
Wind 6 kt aus Nordwest, variierte zwischen West und Nord
Temperatur 28°C
Luftfeuchtigkeit 37%
Luftdruck 1014 hPa
Sichtweite 10 km oder mehr
keine Wolken unter 1500 m und keine Kumulonimbus oder Gewitterwolken

METAR: LFOV 161600Z AUTO 31006KT 280V350 CAVOK 28/12 Q1014

Zeit: 18:25 (16:25 UTC)


TAF: fehlend

Wetterbeobachtungen und Prognosen von mehr als 4000 Flughäfen (METAR und TAF Bericht).

Die verfügbaren Stationen werden durch gelbe und rote Markierungen auf der Karte dargestellt.

Führen Sie die Maus auf sie, um den Namen der Station zu sehen.

Darauf klicken, um die Beobachtung von Wetterbeobachtungen und Prognosen zu sehen.

Um die Karte zu ändern : klicken Sie auf den grünen Tasten mit einem schwarzen Kreuz Zum Vergrößern, auf den grünen Button mit einem Gedankenstrich zu verkleinern, oder auf die grünen Pfeile für benachbarte Karten.


METAR-TAF: